Left ArrowRight Arrow

35.59393, -105.2239

Hourly Observations for June 15, 2024

Temp ( °F °C ) Dew Point ( °F °C ) Humidity (%) Winds ( mph kmh ) Pressure ( in mb ) Visibility ( mi km ) Precip ( " mm )
12:53 am 00:53 Cloudy 56 13.3 50 10 80 80 S 8 13 29.92 1013 10 16 0.00 0.00
1:53 am 01:53 Mostly Clear 55 12.8 50 10 83 83 S 13 20 29.93 1014 10 16 0.00 0.00
2:41 am 02:41 Mostly Cloudy 54 12.2 50 10 86 86 SSW 12 19 29.94 1014 10 16 0.00 0.00
2:53 am 02:53 Cloudy 54 12.2 50 10 86 86 SW 9 15 29.95 1014 10 16 0.00 0.00
3:53 am 03:53 Mostly Cloudy 56 13.3 51 10.6 84 84 SSW 16 26 29.93 1014 10 16 0.00 0.00
4:00 am 04:00 Partly Cloudy 55 12.8 51 10.6 86 86 SSW 14 22 29.91 1013 10 16 0.00 0.00
4:53 am 04:53 Clear 54 12.2 50 10 86 86 SSW 14 22 29.92 1013 10 16 0.00 0.00
5:53 am 05:53 Sunny 55 12.8 48 8.9 77 77 SW 15 24 29.89 1012 10 16 0.00 0.00
6:53 am 06:53 Sunny 57 13.9 49 9.4 74 74 SSE 6 9 29.91 1013 10 16 0.00 0.00
7:53 am 07:53 Sunny 63 17.2 49 9.4 60 60 SSW 10 17 29.91 1013 10 16 0.00 0.00
8:53 am 08:53 Sunny 65 18.3 52 11.1 63 63 S 14 22 29.91 1013 10 16 0.00 0.00
9:53 am 09:53 Sunny 68 20 53 11.7 59 59 S 13 20 29.88 1012 10 16 0.00 0.00
10:53 am 10:53 Sunny 71 21.7 53 11.7 53 53 S 12 19 29.86 1011 10 16 0.00 0.00
11:53 am 11:53 Sunny 74 23.3 52 11.1 46 46 SSW 12 19 29.85 1011 10 16 0.00 0.00
12:53 pm 12:53 Sunny 76 24.4 50 10 40 40 S 8 13 29.82 1010 10 16 0.00 0.00
1:53 pm 13:53 Sunny 79 26.1 52 11.1 39 39 SSE 13 20 29.79 1009 10 16 0.00 0.00
2:53 pm 14:53 Mostly Sunny 80 26.7 49 9.4 34 34 SSW 8 13 29.78 1008 10 16 0.00 0.00
3:53 pm 15:53 Mostly Sunny 81 27.2 46 7.8 29 29 S 7 11 29.74 1007 10 16 0.00 0.00
4:53 pm 16:53 Sunny 82 27.8 45 7.2 27 27 SSE 5 7 29.73 1007 10 16 0.00 0.00
5:53 pm 17:53 Sunny 80 26.7 45 7.2 29 29 S 10 17 29.72 1006 10 16 0.00 0.00
6:53 pm 18:53 Sunny 76 24.4 46 7.8 35 35 SSE 10 17 29.72 1006 10 16 0.00 0.00
7:53 pm 19:53 Sunny 70 21.1 48 8.9 46 46 SE 10 17 29.72 1007 10 16 0.00 0.00
8:53 pm 20:53 Mostly Clear 67 19.4 46 7.8 47 47 SSE 8 13 29.75 1007 10 16 0.00 0.00
9:53 pm 21:53 Clear 70 21.1 42 5.6 36 36 WSW 7 11 29.74 1007 10 16 0.00 0.00
10:53 pm 22:53 Clear 69 20.6 40 4.4 34 34 W 6 9 29.74 1007 10 16 0.00 0.00
11:53 pm 23:53 Clear 67 19.4 39 3.9 36 36 WSW 6 9 29.73 1007 10 16 0.00 0.00

Powered by Vaisala Xweather